Weather in Makiivka

Ukraine / Chernihiv Region     50°40′12″N   31°50′04″E
temp.,
°C
wind,
m/s
gust,
m/s
humid.,
%
clouds,
%
prec.,
mm/h
press.,
hPa
HPBL,
m
29 may, sun
sun2900:00+9w3479100 0.0 101361
03:00+10wsw3877100 0.0 1014201
06:00+9ssw4882100 0.1 1014275
09:00+13wsw456661 0.1 1014792
12:00+16wsw45525 0.0 10151670
15:00+18wsw354749 0.0 10152068
18:00+17nw1364100 0.0 1015242
21:00+13ene3469100 0.0 101684
30 may, mon
mon3000:00+10ese22815 0.0 101720
03:00+10se348071 0.0 101862
06:00+11ese41084100 0.0 1017306
09:00+13ese51284100 0.1 1016594
12:00+18se71072100 0.8 1014932
15:00+21s71069100 0.9 10141483
18:00+18sse5108762 0.9 1013448
21:00+17s5139174 2.6 1013362
31 may, tue
tue3100:00+15ssw359651 1.4 1014123
03:00+15nnw369991 1.4 1015245
06:00+13nnw489733 0.0 1016257
09:00+14n578683 0.0 1017336
12:00+15nnw457895 0.0 1018438
15:00+16nnw597158 0.0 1019647
18:00+18n47645 0.0 1019643
21:00+13nnw34850 0.0 101950
1 june, wed
wed100:00+11ne22880 0.0 102120
03:00+11nne22880 0.0 102113
06:00+11n2289100 0.0 102137
09:00+17ne3371100 0.0 1021416
12:00+20ene335699 0.0 10201050
15:00+22e345188 0.0 10191355
18:00+21se33592 0.0 10181401
21:00+16se3377100 0.0 101823
2 june, thu
thu200:00+14ese228051 0.0 101811
03:00+13sse228779 0.0 101820
06:00+14sw22864 0.0 101830
09:00+19wsw34705 0.0 1018428
12:00+23wsw336239 0.0 10181184
15:00+24w4450100 0.0 10181515
18:00+23w34570 0.0 10181013
21:00+18wnw116299 0.0 101811